| time (UTC) | temp C | wind direction | speed KPH | gust KPH | rain 1hr cm | rain 24hr cm | rain mn cm | humidity % | barometer mb |
| 20260507155748 | 11 | 218 | 8.0 | 11.3 | 0.00 | 0.05 | 0.05 | 70 | 1021.3 |
| 20260507154248 | 10 | 245 | 12.9 | 19.3 | 0.00 | 0.05 | 0.05 | 77 | 1021.2 |
| 20260507152748 | 9 | 246 | 8.0 | 4.8 | 0.00 | 0.05 | 0.05 | 81 | 1021.3 |
| 20260507151248 | 8 | 258 | 4.8 | 4.8 | 0.00 | 0.05 | 0.05 | 86 | 1021.5 |
| 20260507145748 | 7 | 239 | 4.8 | 4.8 | 0.00 | 0.05 | 0.05 | 88 | 1021.7 |
| 20260507144248 | 6 | 253 | 8.0 | 9.7 | 0.00 | 0.05 | 0.05 | 91 | 1021.8 |
| 20260507142747 | 6 | 275 | 12.9 | 14.5 | 0.00 | 0.05 | 0.05 | 92 | 1021.9 |
| 20260507141247 | 6 | 227 | 4.8 | 4.8 | 0.00 | 0.05 | 0.05 | 92 | 1022.1 |
| 20260507135747 | 5 | 253 | 3.2 | 4.8 | 0.00 | 0.05 | 0.05 | 93 | 1022.0 |
| 20260507134247 | 5 | 229 | 3.2 | 4.8 | 0.00 | 0.05 | 0.05 | 92 | 1022.1 |
| 20260507132747 | 5 | 243 | 3.2 | 4.8 | 0.00 | 0.05 | 0.05 | 92 | 1022.2 |
| 20260507131247 | 5 | 231 | 8.0 | 9.7 | 0.00 | 0.05 | 0.05 | 92 | 1022.1 |
| 20260507125746 | 5 | 258 | 9.7 | 11.3 | 0.00 | 0.05 | 0.05 | 92 | 1022.0 |
| 20260507124246 | 5 | 260 | 8.0 | 9.7 | 0.00 | 0.05 | 0.05 | 92 | 1021.9 |
| 20260507122746 | 5 | 284 | 8.0 | 9.7 | 0.00 | 0.05 | 0.05 | 92 | 1021.8 |
| 20260507121246 | 5 | 295 | 4.8 | 4.8 | 0.00 | 0.05 | 0.05 | 92 | 1021.9 |
| 20260507115746 | 5 | 293 | 8.0 | 11.3 | 0.00 | 0.05 | 0.05 | 92 | 1021.7 |
| 20260507114246 | 5 | 253 | 8.0 | 4.8 | 0.00 | 0.05 | 0.05 | 91 | 1021.7 |
| 20260507112746 | 5 | 301 | 3.2 | 11.3 | 0.00 | 0.05 | 0.05 | 91 | 1021.6 |
| 20260507111245 | 5 | 266 | 8.0 | 8.0 | 0.00 | 0.05 | 0.05 | 91 | 1021.7 |
| 20260507105745 | 5 | 258 | 3.2 | 4.8 | 0.00 | 0.05 | 0.05 | 90 | 1021.7 |
| 20260507104245 | 5 | 294 | 8.0 | 11.3 | 0.00 | 0.05 | 0.05 | 90 | 1021.9 |
| 20260507102745 | 5 | 284 | 4.8 | 8.0 | 0.00 | 0.05 | 0.05 | 90 | 1021.9 |
| 20260507101245 | 5 | 277 | 1.6 | 3.2 | 0.00 | 0.05 | 0.05 | 89 | 1021.9 |
| 20260507095745 | 6 | 316 | 1.6 | 1.6 | 0.00 | 0.05 | 0.05 | 89 | 1021.9 |
| 20260507094245 | 6 | 315 | 3.2 | 3.2 | 0.00 | 0.05 | 0.05 | 90 | 1021.9 |
| 20260507092744 | 6 | 292 | 0.0 | 1.6 | 0.00 | 0.05 | 0.05 | 90 | 1021.9 |
| 20260507091244 | 6 | 293 | 1.6 | 3.2 | 0.00 | 0.05 | 0.05 | 89 | 1021.8 |
| 20260507085744 | 5 | 339 | 8.0 | 4.8 | 0.00 | 0.05 | 0.05 | 89 | 1021.7 |
| 20260507084244 | 6 | 330 | 0.0 | 0.0 | 0.00 | 0.05 | 0.05 | 88 | 1021.4 |
| 20260507082744 | 6 | 330 | 0.0 | 0.0 | 0.05 | 0.05 | 0.05 | 87 | 1021.3 |
| 20260507081243 | 6 | 330 | 0.0 | 0.0 | 0.05 | 0.05 | 0.05 | 87 | 1021.5 |
| 20260507075743 | 6 | 330 | 0.0 | 0.0 | 0.05 | 0.05 | 0.05 | 86 | 1021.6 |
| 20260507074243 | 6 | 330 | 0.0 | 0.0 | 0.05 | 0.05 | 0.05 | 86 | 1021.5 |
| 20260507072743 | 6 | 330 | 0.0 | 0.0 | 0.00 | 0.00 | 0.00 | 83 | 1022.2 |
| 20260507071243 | 7 | 337 | 0.0 | 1.6 | 0.00 | 0.00 | 0.00 | 81 | 1022.4 |
| 20260507065742 | 7 | 351 | 0.0 | 0.0 | 0.00 | 0.00 | 0.00 | 76 | 1022.9 |
| 20260507064242 | 7 | 338 | 0.0 | 0.0 | 0.00 | 0.00 | 0.00 | 72 | 1022.8 |
| 20260507062742 | 7 | 325 | 3.2 | 4.8 | 0.00 | 0.00 | 0.00 | 68 | 1023.1 |
| 20260507061242 | 7 | 2 | 1.6 | 3.2 | 0.00 | 0.00 | 0.00 | 67 | 1022.4 |
| 20260507055742 | 8 | 5 | 0.0 | 0.0 | 0.00 | 0.00 | 0.00 | 67 | 1022.2 |
| 20260507054242 | 8 | 348 | 0.0 | 0.0 | 0.00 | 0.00 | 0.00 | 66 | 1021.9 |
| 20260507052742 | 8 | 10 | 0.0 | 0.0 | 0.00 | 0.00 | 0.00 | 65 | 1022.2 |
| 20260507051241 | 8 | 9 | 1.6 | 1.6 | 0.00 | 0.00 | 0.00 | 64 | 1021.6 |
| 20260507045741 | 8 | 358 | 1.6 | 3.2 | 0.00 | 0.00 | 0.00 | 64 | 1021.7 |
| 20260507044241 | 8 | 18 | 9.7 | 14.5 | 0.00 | 0.00 | 0.00 | 64 | 1022.0 |
| 20260507042741 | 9 | 353 | 4.8 | 9.7 | 0.00 | 0.00 | 0.00 | 61 | 1022.0 |
| 20260507041241 | 9 | 349 | 3.2 | 4.8 | 0.00 | 0.00 | 0.00 | 58 | 1021.6 |
| 20260507035741 | 9 | 23 | 1.6 | 1.6 | 0.00 | 0.00 | 0.00 | 58 | 1021.5 |
| 20260507034241 | 10 | 8 | 4.8 | 12.9 | 0.00 | 0.00 | 0.00 | 57 | 1021.6 |
| 20260507032740 | 10 | 37 | 3.2 | 3.2 | 0.00 | 0.00 | 0.00 | 56 | 1021.3 |
| 20260507031240 | 10 | 0 | 32.2 | 32.2 | 0.00 | 0.00 | 0.00 | 56 | 1021.0 |
| 20260507025740 | 11 | 345 | 3.2 | 3.2 | 0.00 | 0.00 | 0.00 | 54 | 1020.6 |
| 20260507024240 | 11 | 12 | 4.8 | 4.8 | 0.00 | 0.00 | 0.00 | 53 | 1020.3 |
| 20260507022740 | 12 | 349 | 11.3 | 14.5 | 0.00 | 0.00 | 0.00 | 52 | 1019.9 |
| 20260507021240 | 12 | 40 | 3.2 | 4.8 | 0.00 | 0.00 | 0.00 | 50 | 1019.6 |
| 20260507015740 | 12 | 21 | 1.6 | 1.6 | 0.00 | 0.00 | 0.00 | 51 | 1018.9 |
| 20260507014239 | 13 | 17 | 3.2 | 4.8 | 0.00 | 0.00 | 0.00 | 51 | 1018.4 |
| 20260507012739 | 13 | 55 | 0.0 | 0.0 | 0.00 | 0.00 | 0.00 | 50 | 1017.7 |
| 20260507011239 | 13 | 39 | 0.0 | 3.2 | 0.00 | 0.00 | 0.00 | 48 | 1017.2 |
| 20260507005739 | 14 | 61 | 0.0 | 1.6 | 0.00 | 0.00 | 0.00 | 47 | 1016.5 |
| 20260507004239 | 15 | 37 | 0.0 | 1.6 | 0.00 | 0.00 | 0.00 | 46 | 1016.3 |
| 20260507002738 | 15 | 53 | 0.0 | 1.6 | 0.00 | 0.00 | 0.00 | 46 | 1016.2 |
| 20260507001238 | 15 | 40 | 1.6 | 1.6 | 0.00 | 0.00 | 0.00 | 46 | 1016.0 |
| 20260506235738 | 15 | 59 | 1.6 | 1.6 | 0.00 | 0.00 | 0.00 | 46 | 1015.5 |
| 20260506234238 | 15 | 58 | 1.6 | 0.0 | 0.00 | 0.00 | 0.00 | 47 | 1015.6 |
| 20260506232738 | 15 | 118 | 0.0 | 0.0 | 0.00 | 0.00 | 0.00 | 46 | 1015.6 |
| 20260506231238 | 15 | 28 | 1.6 | 1.6 | 0.00 | 0.00 | 0.00 | 47 | 1015.7 |
| 20260506225737 | 15 | 75 | 1.6 | 1.6 | 0.00 | 0.00 | 0.00 | 47 | 1015.8 |
| 20260506224237 | 15 | 112 | 3.2 | 4.8 | 0.00 | 0.00 | 0.00 | 47 | 1015.9 |
| 20260506222737 | 15 | 76 | 0.0 | 0.0 | 0.00 | 0.00 | 0.00 | 47 | 1015.8 |
| 20260506221237 | 15 | 26 | 1.6 | 3.2 | 0.00 | 0.00 | 0.00 | 47 | 1016.0 |
| 20260506215737 | 15 | 64 | 3.2 | 3.2 | 0.00 | 0.00 | 0.00 | 48 | 1016.1 |
| 20260506214237 | 15 | 55 | 1.6 | 4.8 | 0.00 | 0.00 | 0.00 | 49 | 1016.1 |
| 20260506212737 | 15 | 45 | 1.6 | 1.6 | 0.00 | 0.00 | 0.00 | 48 | 1016.1 |
| 20260506211237 | 15 | 53 | 1.6 | 1.6 | 0.00 | 0.00 | 0.00 | 47 | 1016.2 |
| 20260506205736 | 15 | 61 | 1.6 | 1.6 | 0.00 | 0.00 | 0.00 | 49 | 1016.3 |
| 20260506204236 | 15 | 59 | 1.6 | 4.8 | 0.00 | 0.00 | 0.00 | 48 | 1016.4 |
| 20260506202736 | 15 | 107 | 14.5 | 32.2 | 0.00 | 0.00 | 0.00 | 47 | 1016.4 |
| 20260506201236 | 15 | 115 | 0.0 | 0.0 | 0.00 | 0.00 | 0.00 | 47 | 1016.4 |
| 20260506195736 | 14 | 77 | 1.6 | 4.8 | 0.00 | 0.00 | 0.00 | 49 | 1016.5 |
| 20260506194236 | 15 | 61 | 1.6 | 3.2 | 0.00 | 0.00 | 0.00 | 49 | 1016.6 |
| 20260506192736 | 13 | 338 | 0.0 | 1.6 | 0.00 | 0.00 | 0.00 | 52 | 1016.9 |
| 20260506191236 | 13 | 5 | 0.0 | 0.0 | 0.00 | 0.00 | 0.00 | 50 | 1016.9 |
| 20260506185735 | 13 | 68 | 0.0 | 0.0 | 0.00 | 0.00 | 0.00 | 53 | 1017.0 |
| 20260506184235 | 13 | 76 | 0.0 | 1.6 | 0.00 | 0.00 | 0.00 | 51 | 1017.1 |
| 20260506182735 | 13 | 88 | 0.0 | 0.0 | 0.00 | 0.00 | 0.00 | 51 | 1017.3 |
| 20260506181235 | 13 | 13 | 0.0 | 0.0 | 0.00 | 0.00 | 0.00 | 52 | 1017.8 |
| 20260506175735 | 12 | 40 | 1.6 | 3.2 | 0.00 | 0.00 | 0.00 | 54 | 1017.8 |
| 20260506174235 | 12 | 60 | 0.0 | 0.0 | 0.00 | 0.00 | 0.00 | 53 | 1017.9 |
| 20260506172734 | 12 | 76 | 0.0 | 0.0 | 0.00 | 0.00 | 0.00 | 54 | 1017.9 |
| 20260506171234 | 12 | 104 | 0.0 | 3.2 | 0.00 | 0.00 | 0.00 | 58 | 1017.7 |
| 20260506165734 | 11 | 80 | 0.0 | 0.0 | 0.00 | 0.00 | 0.00 | 60 | 1017.7 |
| 20260506164234 | 10 | 64 | 0.0 | 0.0 | 0.00 | 0.00 | 0.00 | 61 | 1017.8 |
| 20260506162734 | 10 | 126 | 1.6 | 3.2 | 0.00 | 0.00 | 0.00 | 62 | 1017.7 |
| 20260506161234 | 9 | 97 | 0.0 | 0.0 | 0.00 | 0.00 | 0.00 | 64 | 1017.4 |